Year,Month,Day,Hour,Minute,Value (Times are PST for temperature in C)
2011,07,23,00,00,12.00
2011,07,23,00,01,12.00
2011,07,23,00,02,12.10
2011,07,23,00,03,12.00
2011,07,23,00,04,12.00
2011,07,23,00,05,12.00
2011,07,23,00,06,12.00
2011,07,23,00,07,12.10
2011,07,23,00,08,12.10
2011,07,23,00,09,12.10
2011,07,23,00,10,12.10
2011,07,23,00,11,12.10
2011,07,23,00,12,12.10
2011,07,23,00,13,12.00
2011,07,23,00,14,12.00
2011,07,23,00,15,12.00
2011,07,23,00,16,12.00
2011,07,23,00,17,11.90
2011,07,23,00,18,11.90
2011,07,23,00,19,11.90
2011,07,23,00,20,11.90
2011,07,23,00,21,11.90
2011,07,23,00,22,11.90
2011,07,23,00,23,11.90
2011,07,23,00,24,11.90
2011,07,23,00,25,11.90
2011,07,23,00,26,11.90
2011,07,23,00,27,11.90
2011,07,23,00,28,11.90
2011,07,23,00,29,11.80
2011,07,23,00,30,11.80
2011,07,23,00,31,11.80
2011,07,23,00,32,11.80
2011,07,23,00,33,11.80
2011,07,23,00,34,11.80
2011,07,23,00,35,11.80
2011,07,23,00,36,11.80
2011,07,23,00,37,11.80
2011,07,23,00,38,11.80
2011,07,23,00,39,11.80
2011,07,23,00,40,11.80
2011,07,23,00,41,11.80
2011,07,23,00,42,11.80
2011,07,23,00,43,11.90
2011,07,23,00,44,11.90
2011,07,23,00,45,11.90
2011,07,23,00,46,11.90
2011,07,23,00,47,11.90
2011,07,23,00,48,11.90
2011,07,23,00,49,11.90
2011,07,23,00,50,11.90
2011,07,23,00,51,11.90
2011,07,23,00,52,12.00
2011,07,23,00,53,12.00
2011,07,23,00,54,12.00
2011,07,23,00,55,12.00
2011,07,23,00,56,12.00
2011,07,23,00,57,12.00
2011,07,23,00,58,12.00
2011,07,23,00,59,12.00
2011,07,23,01,00,12.00
2011,07,23,01,01,12.00
2011,07,23,01,02,12.00
2011,07,23,01,03,12.00
2011,07,23,01,04,12.00
2011,07,23,01,05,12.00
2011,07,23,01,06,12.00
2011,07,23,01,07,12.00
2011,07,23,01,08,12.00
2011,07,23,01,09,12.00
2011,07,23,01,10,12.10
2011,07,23,01,11,12.10
2011,07,23,01,12,12.00
2011,07,23,01,13,12.00
2011,07,23,01,14,12.00
2011,07,23,01,15,12.00
2011,07,23,01,16,12.00
2011,07,23,01,17,11.90
2011,07,23,01,18,11.90
2011,07,23,01,19,11.90
2011,07,23,01,20,11.90
2011,07,23,01,21,11.80
2011,07,23,01,22,11.80
2011,07,23,01,23,11.80
2011,07,23,01,24,11.80
2011,07,23,01,25,11.80
2011,07,23,01,26,11.80
2011,07,23,01,27,11.70
2011,07,23,01,28,11.70
2011,07,23,01,29,11.70
2011,07,23,01,30,11.70
2011,07,23,01,31,11.60
2011,07,23,01,32,11.60
2011,07,23,01,33,11.60
2011,07,23,01,34,11.60
2011,07,23,01,35,11.60
2011,07,23,01,36,11.60
2011,07,23,01,37,11.50
2011,07,23,01,38,11.50
2011,07,23,01,39,11.40
2011,07,23,01,40,11.40
2011,07,23,01,41,11.40
2011,07,23,01,42,11.30
2011,07,23,01,43,11.30
2011,07,23,01,44,11.30
2011,07,23,01,45,11.30
2011,07,23,01,46,11.20
2011,07,23,01,47,11.20
2011,07,23,01,48,11.20
2011,07,23,01,49,11.20
2011,07,23,01,50,11.10
2011,07,23,01,51,11.10
2011,07,23,01,52,11.00
2011,07,23,01,53,11.00
2011,07,23,01,54,11.00
2011,07,23,01,55,11.00
2011,07,23,01,56,10.90
2011,07,23,01,57,10.90
2011,07,23,01,58,10.90
2011,07,23,01,59,10.80
2011,07,23,02,00,10.80
2011,07,23,02,01,10.80
2011,07,23,02,02,10.80
2011,07,23,02,03,10.80
2011,07,23,02,04,10.80
2011,07,23,02,05,10.80
2011,07,23,02,06,10.80
2011,07,23,02,07,10.80
2011,07,23,02,08,10.90
2011,07,23,02,09,10.90
2011,07,23,02,10,10.90
2011,07,23,02,11,10.90
2011,07,23,02,12,10.90
2011,07,23,02,13,10.80
2011,07,23,02,14,10.80
2011,07,23,02,15,10.80
2011,07,23,02,16,10.80
2011,07,23,02,17,10.80
2011,07,23,02,18,10.80
2011,07,23,02,19,10.80
2011,07,23,02,20,10.80
2011,07,23,02,21,10.80
2011,07,23,02,22,10.70
2011,07,23,02,23,10.70
2011,07,23,02,24,10.70
2011,07,23,02,25,10.60
2011,07,23,02,26,10.60
2011,07,23,02,27,10.60
2011,07,23,02,28,10.60
2011,07,23,02,29,10.60
2011,07,23,02,30,10.60
2011,07,23,02,31,10.70
2011,07,23,02,32,10.70
2011,07,23,02,33,10.70
2011,07,23,02,34,10.60
2011,07,23,02,35,10.60
2011,07,23,02,36,10.60
2011,07,23,02,37,10.60
2011,07,23,02,38,10.50
2011,07,23,02,39,10.40
2011,07,23,02,40,10.40
2011,07,23,02,41,10.30
2011,07,23,02,42,10.30
2011,07,23,02,43,10.30
2011,07,23,02,44,10.30
2011,07,23,02,45,10.20
2011,07,23,02,46,10.20
2011,07,23,02,47,10.20
2011,07,23,02,48,10.10
2011,07,23,02,49,10.10
2011,07,23,02,50,10.10
2011,07,23,02,51,10.00
2011,07,23,02,52,9.90
2011,07,23,02,53,9.90
2011,07,23,02,54,9.90
2011,07,23,02,55,9.90
2011,07,23,02,56,9.90
2011,07,23,02,57,9.90
2011,07,23,02,58,9.80
2011,07,23,02,59,9.80
2011,07,23,03,00,9.80
2011,07,23,03,01,9.80
2011,07,23,03,02,9.80
2011,07,23,03,03,9.80
2011,07,23,03,04,9.90
2011,07,23,03,05,9.90
2011,07,23,03,06,9.90
2011,07,23,03,07,10.00
2011,07,23,03,08,10.00
2011,07,23,03,09,10.10
2011,07,23,03,10,10.10
2011,07,23,03,11,10.10
2011,07,23,03,12,10.10
2011,07,23,03,13,10.10
2011,07,23,03,14,10.20
2011,07,23,03,15,10.20
2011,07,23,03,16,10.20
2011,07,23,03,17,10.20
2011,07,23,03,18,10.20
2011,07,23,03,19,10.20
2011,07,23,03,20,10.20
2011,07,23,03,21,10.20
2011,07,23,03,22,10.20
2011,07,23,03,23,10.20
2011,07,23,03,24,10.20
2011,07,23,03,25,10.30
2011,07,23,03,26,10.20
2011,07,23,03,27,10.20
2011,07,23,03,28,10.20
2011,07,23,03,29,10.10
2011,07,23,03,30,10.10
2011,07,23,03,31,10.10
2011,07,23,03,32,10.10
2011,07,23,03,33,10.10
2011,07,23,03,34,10.10
2011,07,23,03,35,10.10
2011,07,23,03,36,10.10
2011,07,23,03,37,10.00
2011,07,23,03,38,10.00
2011,07,23,03,39,9.90
2011,07,23,03,40,9.90
2011,07,23,03,41,9.90
2011,07,23,03,42,9.90
2011,07,23,03,43,9.80
2011,07,23,03,44,9.80
2011,07,23,03,45,9.80
2011,07,23,03,46,9.70
2011,07,23,03,47,9.70
2011,07,23,03,48,9.70
2011,07,23,03,49,9.70
2011,07,23,03,50,9.70
2011,07,23,03,51,9.70
2011,07,23,03,52,9.60
2011,07,23,03,53,9.60
2011,07,23,03,54,9.60
2011,07,23,03,55,9.60
2011,07,23,03,56,9.60
2011,07,23,03,57,9.60
2011,07,23,03,58,9.60
2011,07,23,03,59,9.70
2011,07,23,04,00,9.70
2011,07,23,04,01,9.70
2011,07,23,04,02,9.70
2011,07,23,04,03,9.70
2011,07,23,04,04,9.80
2011,07,23,04,05,9.80
2011,07,23,04,06,9.80
2011,07,23,04,07,9.90
2011,07,23,04,08,9.90
2011,07,23,04,09,9.90
2011,07,23,04,10,10.00
2011,07,23,04,11,10.00
2011,07,23,04,12,10.00
2011,07,23,04,13,10.00
2011,07,23,04,14,10.00
2011,07,23,04,15,10.00
2011,07,23,04,16,10.00
2011,07,23,04,17,10.00
2011,07,23,04,18,10.00
2011,07,23,04,19,10.00
2011,07,23,04,20,10.00
2011,07,23,04,21,10.00
2011,07,23,04,22,10.00
2011,07,23,04,23,10.00
2011,07,23,04,24,10.00
2011,07,23,04,25,10.00
2011,07,23,04,26,10.00
2011,07,23,04,27,10.00
2011,07,23,04,28,10.00
2011,07,23,04,29,10.00
2011,07,23,04,30,10.00
2011,07,23,04,31,10.00
2011,07,23,04,32,9.90
2011,07,23,04,33,9.90
2011,07,23,04,34,9.90
2011,07,23,04,35,9.90
2011,07,23,04,36,9.90
2011,07,23,04,37,9.80
2011,07,23,04,38,9.80
2011,07,23,04,39,9.80
2011,07,23,04,40,9.80
2011,07,23,04,41,9.80
2011,07,23,04,42,9.80
2011,07,23,04,43,9.80
2011,07,23,04,44,9.80
2011,07,23,04,45,9.80
2011,07,23,04,46,9.80
2011,07,23,04,47,9.80
2011,07,23,04,48,9.80
2011,07,23,04,49,9.80
2011,07,23,04,50,9.80
2011,07,23,04,51,9.70
2011,07,23,04,52,9.70
2011,07,23,04,53,9.70
2011,07,23,04,54,9.70
2011,07,23,04,55,9.70
2011,07,23,04,56,9.70
2011,07,23,04,57,9.70
2011,07,23,04,58,9.70
2011,07,23,04,59,9.70
2011,07,23,05,00,9.70
2011,07,23,05,01,9.70
2011,07,23,05,02,9.70
2011,07,23,05,03,9.70
2011,07,23,05,04,9.70
2011,07,23,05,05,9.80
2011,07,23,05,06,9.80
2011,07,23,05,07,9.80
2011,07,23,05,08,9.80
2011,07,23,05,09,9.90
2011,07,23,05,10,9.90
2011,07,23,05,11,9.90
2011,07,23,05,12,9.90
2011,07,23,05,13,9.90
2011,07,23,05,14,9.90
2011,07,23,05,15,9.90
2011,07,23,05,16,9.90
2011,07,23,05,17,9.90
2011,07,23,05,18,9.90
2011,07,23,05,19,9.90
2011,07,23,05,20,9.90
2011,07,23,05,21,9.90
2011,07,23,05,22,9.80
2011,07,23,05,23,9.80
2011,07,23,05,24,9.80
2011,07,23,05,25,9.80
2011,07,23,05,26,9.80
2011,07,23,05,27,9.80
2011,07,23,05,28,9.80
2011,07,23,05,29,9.70
2011,07,23,05,30,9.70
2011,07,23,05,31,9.70
2011,07,23,05,32,9.70
2011,07,23,05,33,9.70
2011,07,23,05,34,9.70
2011,07,23,05,35,9.70
2011,07,23,05,36,9.70
2011,07,23,05,37,9.70
2011,07,23,05,38,9.70
2011,07,23,05,39,9.70
2011,07,23,05,40,9.70
2011,07,23,05,41,9.70
2011,07,23,05,42,9.70
2011,07,23,05,43,9.60
2011,07,23,05,44,9.60
2011,07,23,05,45,9.60
2011,07,23,05,46,9.60
2011,07,23,05,47,9.60
2011,07,23,05,48,9.70
2011,07,23,05,49,9.60
2011,07,23,05,50,9.70
2011,07,23,05,51,9.70
2011,07,23,05,52,9.70
2011,07,23,05,53,9.70
2011,07,23,05,54,9.70
2011,07,23,05,55,9.70
2011,07,23,05,56,9.70
2011,07,23,05,57,9.70
2011,07,23,05,58,9.60
2011,07,23,05,59,9.70
2011,07,23,06,00,9.70
2011,07,23,06,01,9.70
2011,07,23,06,02,9.70
2011,07,23,06,03,9.70
2011,07,23,06,04,9.70
2011,07,23,06,05,9.70
2011,07,23,06,06,9.70
2011,07,23,06,07,9.70
2011,07,23,06,08,9.70
2011,07,23,06,09,9.70
2011,07,23,06,10,9.70
2011,07,23,06,11,9.80
2011,07,23,06,12,9.80
2011,07,23,06,13,9.80
2011,07,23,06,14,9.80
2011,07,23,06,15,9.80
2011,07,23,06,16,9.80
2011,07,23,06,17,9.80
2011,07,23,06,18,9.80
2011,07,23,06,19,9.90
2011,07,23,06,20,9.90
2011,07,23,06,21,9.90
2011,07,23,06,22,9.90
2011,07,23,06,23,10.00
2011,07,23,06,24,10.00
2011,07,23,06,25,10.00
2011,07,23,06,26,10.10
2011,07,23,06,27,10.10
2011,07,23,06,28,10.10
2011,07,23,06,29,10.10
2011,07,23,06,30,10.10
2011,07,23,06,31,10.10
2011,07,23,06,32,10.20
2011,07,23,06,33,10.20
2011,07,23,06,34,10.20
2011,07,23,06,35,10.20
2011,07,23,06,36,10.30
2011,07,23,06,37,10.30
2011,07,23,06,38,10.30
2011,07,23,06,39,10.30
2011,07,23,06,40,10.30
2011,07,23,06,41,10.30
2011,07,23,06,42,10.40
2011,07,23,06,43,10.40
2011,07,23,06,44,10.40
2011,07,23,06,45,10.40
2011,07,23,06,46,10.40
2011,07,23,06,47,10.50
2011,07,23,06,48,10.50
2011,07,23,06,49,10.50
2011,07,23,06,50,10.50
2011,07,23,06,51,10.60
2011,07,23,06,52,10.60
2011,07,23,06,53,10.60
2011,07,23,06,54,10.60
2011,07,23,06,55,10.60
2011,07,23,06,56,10.70
2011,07,23,06,57,10.70
2011,07,23,06,58,10.70
2011,07,23,06,59,10.70
2011,07,23,07,00,10.70
2011,07,23,07,01,10.70
2011,07,23,07,02,10.70
2011,07,23,07,03,10.70
2011,07,23,07,04,10.70
2011,07,23,07,05,10.80
2011,07,23,07,06,10.80
2011,07,23,07,07,10.80
2011,07,23,07,08,10.80
2011,07,23,07,09,10.80
2011,07,23,07,10,10.80
2011,07,23,07,11,10.90
2011,07,23,07,12,10.90
2011,07,23,07,13,10.90
2011,07,23,07,14,10.90
2011,07,23,07,15,10.90
2011,07,23,07,16,11.00
2011,07,23,07,17,11.00
2011,07,23,07,18,11.10
2011,07,23,07,19,11.10
2011,07,23,07,20,11.10
2011,07,23,07,21,11.20
2011,07,23,07,22,11.20
2011,07,23,07,23,11.20
2011,07,23,07,24,11.30
2011,07,23,07,25,11.30
2011,07,23,07,26,11.40
2011,07,23,07,27,11.40
2011,07,23,07,28,11.50
2011,07,23,07,29,11.60
2011,07,23,07,30,11.60
2011,07,23,07,31,11.70
2011,07,23,07,32,11.70
2011,07,23,07,33,11.80
2011,07,23,07,34,11.80
2011,07,23,07,35,11.80
2011,07,23,07,36,11.90
2011,07,23,07,37,11.90
2011,07,23,07,38,12.00
2011,07,23,07,39,12.00
2011,07,23,07,40,12.10
2011,07,23,07,41,12.10
2011,07,23,07,42,12.20
2011,07,23,07,43,12.20
2011,07,23,07,44,12.20
2011,07,23,07,45,12.30
2011,07,23,07,46,12.30
2011,07,23,07,47,12.30
2011,07,23,07,48,12.30
2011,07,23,07,49,12.40
2011,07,23,07,50,12.40
2011,07,23,07,51,12.40
2011,07,23,07,52,12.40
2011,07,23,07,53,12.40
2011,07,23,07,54,12.40
2011,07,23,07,55,12.40
2011,07,23,07,56,12.40
2011,07,23,07,57,12.50
2011,07,23,07,58,12.50
2011,07,23,07,59,12.50
2011,07,23,08,00,12.50
2011,07,23,08,01,12.60
2011,07,23,08,02,12.60
2011,07,23,08,03,12.70
2011,07,23,08,04,12.70
2011,07,23,08,05,12.70
2011,07,23,08,06,12.80
2011,07,23,08,07,12.90
2011,07,23,08,08,12.90
2011,07,23,08,09,13.00
2011,07,23,08,10,13.10
2011,07,23,08,11,13.10
2011,07,23,08,12,13.10
2011,07,23,08,13,13.10
2011,07,23,08,14,13.10
2011,07,23,08,15,13.10
2011,07,23,08,16,13.10
2011,07,23,08,17,13.20
2011,07,23,08,18,13.20
2011,07,23,08,19,13.10
2011,07,23,08,20,13.10
2011,07,23,08,21,13.10
2011,07,23,08,22,13.10
2011,07,23,08,23,13.10
2011,07,23,08,24,13.10
2011,07,23,08,25,13.10
2011,07,23,08,26,13.20
2011,07,23,08,27,13.20
2011,07,23,08,28,13.20
2011,07,23,08,29,13.20
2011,07,23,08,30,13.30
2011,07,23,08,31,13.30
2011,07,23,08,32,13.40
2011,07,23,08,33,13.40
2011,07,23,08,34,13.50
2011,07,23,08,35,13.50
2011,07,23,08,36,13.60
2011,07,23,08,37,13.60
2011,07,23,08,38,13.70
2011,07,23,08,39,13.70
2011,07,23,08,40,13.70
2011,07,23,08,41,13.70
2011,07,23,08,42,13.80
2011,07,23,08,43,13.90
2011,07,23,08,44,13.90
2011,07,23,08,45,14.00
2011,07,23,08,46,14.10
2011,07,23,08,47,14.10
2011,07,23,08,48,14.10
2011,07,23,08,49,14.20
2011,07,23,08,50,14.20
2011,07,23,08,51,14.20
2011,07,23,08,52,14.30
2011,07,23,08,53,14.30
2011,07,23,08,54,14.30
2011,07,23,08,55,14.30
2011,07,23,08,56,14.30
2011,07,23,08,57,14.30
2011,07,23,08,58,14.30
2011,07,23,08,59,14.30
2011,07,23,09,00,14.30
2011,07,23,09,01,14.30
2011,07,23,09,02,14.30
2011,07,23,09,03,14.30
2011,07,23,09,04,14.30
2011,07,23,09,05,14.20
2011,07,23,09,06,14.20
2011,07,23,09,07,14.20
2011,07,23,09,08,14.20
2011,07,23,09,09,14.20
2011,07,23,09,10,14.30
2011,07,23,09,11,14.20
2011,07,23,09,12,14.20
2011,07,23,09,13,14.30
2011,07,23,09,14,14.30
2011,07,23,09,15,14.30
2011,07,23,09,16,14.30
2011,07,23,09,17,14.30
2011,07,23,09,18,14.30
2011,07,23,09,19,14.40
2011,07,23,09,20,14.40
2011,07,23,09,21,14.40
2011,07,23,09,22,14.40
2011,07,23,09,23,14.40
2011,07,23,09,24,14.40
2011,07,23,09,25,14.40
2011,07,23,09,26,14.40
2011,07,23,09,27,14.40
2011,07,23,09,28,14.40
2011,07,23,09,29,14.50
2011,07,23,09,30,14.50
2011,07,23,09,31,14.50
2011,07,23,09,32,14.60
2011,07,23,09,33,14.60
2011,07,23,09,34,14.60
2011,07,23,09,35,14.70
2011,07,23,09,36,14.70
2011,07,23,09,37,14.70
2011,07,23,09,38,14.70
2011,07,23,09,39,14.70
2011,07,23,09,40,14.70
2011,07,23,09,41,14.70
2011,07,23,09,42,14.70
2011,07,23,09,43,14.80
2011,07,23,09,44,14.80
2011,07,23,09,45,14.90
2011,07,23,09,46,15.00
2011,07,23,09,47,15.00
2011,07,23,09,48,15.00
2011,07,23,09,49,15.00
2011,07,23,09,50,15.00
2011,07,23,09,51,15.00
2011,07,23,09,52,15.00
2011,07,23,09,53,15.00
2011,07,23,09,54,15.00
2011,07,23,09,55,15.00
2011,07,23,09,56,15.00
2011,07,23,09,57,15.00
2011,07,23,09,58,15.00
2011,07,23,09,59,15.00
2011,07,23,10,00,15.00
2011,07,23,10,01,15.00
2011,07,23,10,02,15.00
2011,07,23,10,03,15.10
2011,07,23,10,04,15.30
2011,07,23,10,05,15.30
2011,07,23,10,06,15.30
2011,07,23,10,07,15.30
2011,07,23,10,08,15.30
2011,07,23,10,09,15.30
2011,07,23,10,10,15.40
2011,07,23,10,11,15.40
2011,07,23,10,12,15.40
2011,07,23,10,13,15.40
2011,07,23,10,14,15.40
2011,07,23,10,15,15.40
2011,07,23,10,16,15.50
2011,07,23,10,17,15.50
2011,07,23,10,18,15.40
2011,07,23,10,19,15.40
2011,07,23,10,20,15.40
2011,07,23,10,21,15.40
2011,07,23,10,22,15.40
2011,07,23,10,23,15.40
2011,07,23,10,24,15.40
2011,07,23,10,25,15.50
2011,07,23,10,26,15.50
2011,07,23,10,27,15.60
2011,07,23,10,28,15.60
2011,07,23,10,29,15.70
2011,07,23,10,30,15.70
2011,07,23,10,31,15.70
2011,07,23,10,32,15.70
2011,07,23,10,33,15.80
2011,07,23,10,34,15.80
2011,07,23,10,35,15.90
2011,07,23,10,36,16.00
2011,07,23,10,37,16.10
2011,07,23,10,38,16.20
2011,07,23,10,39,16.40
2011,07,23,10,40,16.50
2011,07,23,10,41,16.50
2011,07,23,10,42,16.60
2011,07,23,10,43,16.60
2011,07,23,10,44,16.60
2011,07,23,10,45,16.60
2011,07,23,10,46,16.60
2011,07,23,10,47,16.70
2011,07,23,10,48,16.70
2011,07,23,10,49,16.80
2011,07,23,10,50,16.80
2011,07,23,10,51,16.90
2011,07,23,10,52,17.00
2011,07,23,10,53,17.00
2011,07,23,10,54,17.10
2011,07,23,10,55,17.10
2011,07,23,10,56,17.20
2011,07,23,10,57,17.30
2011,07,23,10,58,17.40
2011,07,23,10,59,17.50
2011,07,23,11,00,17.60
2011,07,23,11,01,17.60
2011,07,23,11,02,17.60
2011,07,23,11,03,17.70
2011,07,23,11,04,17.70
2011,07,23,11,05,17.70
2011,07,23,11,06,17.80
2011,07,23,11,07,17.90
2011,07,23,11,08,18.00
2011,07,23,11,09,18.10
2011,07,23,11,10,18.20
2011,07,23,11,11,18.20
2011,07,23,11,12,18.30
2011,07,23,11,13,18.30
2011,07,23,11,14,18.30
2011,07,23,11,15,18.30
2011,07,23,11,16,18.30
2011,07,23,11,17,18.20
2011,07,23,11,18,18.10
2011,07,23,11,19,18.00
2011,07,23,11,20,18.00
2011,07,23,11,21,17.90
2011,07,23,11,22,17.80
2011,07,23,11,23,17.70
2011,07,23,11,24,17.70
2011,07,23,11,25,17.80
2011,07,23,11,26,18.00
2011,07,23,11,27,18.20
2011,07,23,11,28,18.30
2011,07,23,11,29,18.30
2011,07,23,11,30,18.40
2011,07,23,11,31,18.40
2011,07,23,11,32,18.30
2011,07,23,11,33,18.30
2011,07,23,11,34,18.20
2011,07,23,11,35,18.10
2011,07,23,11,36,18.10
2011,07,23,11,37,18.10
2011,07,23,11,38,18.00
2011,07,23,11,39,18.00
2011,07,23,11,40,18.00
2011,07,23,11,41,18.00
2011,07,23,11,42,18.00
2011,07,23,11,43,18.00
2011,07,23,11,44,18.10
2011,07,23,11,45,18.20
2011,07,23,11,46,18.30
2011,07,23,11,47,18.50
2011,07,23,11,48,18.60
2011,07,23,11,49,18.80
2011,07,23,11,50,18.90
2011,07,23,11,51,18.80
2011,07,23,11,52,18.70
2011,07,23,11,53,18.60
2011,07,23,11,54,18.70
2011,07,23,11,55,18.80
2011,07,23,11,56,18.70
2011,07,23,11,57,18.60
2011,07,23,11,58,18.50
2011,07,23,11,59,18.30
2011,07,23,12,00,18.30
2011,07,23,12,01,18.20
2011,07,23,12,02,18.10
2011,07,23,12,03,18.20
2011,07,23,12,04,18.30
2011,07,23,12,05,18.50
2011,07,23,12,06,18.60
2011,07,23,12,07,18.90
2011,07,23,12,08,19.00
2011,07,23,12,09,19.10
2011,07,23,12,10,19.20
2011,07,23,12,11,19.20
2011,07,23,12,12,19.30
2011,07,23,12,13,19.40
2011,07,23,12,14,19.50
2011,07,23,12,15,19.50
2011,07,23,12,16,19.60
2011,07,23,12,17,19.60
2011,07,23,12,18,19.50
2011,07,23,12,19,19.60
2011,07,23,12,20,19.60
2011,07,23,12,21,19.50
2011,07,23,12,22,19.40
2011,07,23,12,23,19.40
2011,07,23,12,24,19.40
2011,07,23,12,25,19.30
2011,07,23,12,26,19.30
2011,07,23,12,27,19.40
2011,07,23,12,28,19.40
2011,07,23,12,29,19.50
2011,07,23,12,30,19.50
2011,07,23,12,31,19.60
2011,07,23,12,32,19.70
2011,07,23,12,33,19.80
2011,07,23,12,34,19.80
2011,07,23,12,35,19.70
2011,07,23,12,36,19.70
2011,07,23,12,37,19.70
2011,07,23,12,38,19.70
2011,07,23,12,39,19.70
2011,07,23,12,40,19.70
2011,07,23,12,41,19.70
2011,07,23,12,42,19.70
2011,07,23,12,43,19.70
2011,07,23,12,44,19.70
2011,07,23,12,45,19.70
2011,07,23,12,46,19.80
2011,07,23,12,47,19.90
2011,07,23,12,48,20.00
2011,07,23,12,49,20.20
2011,07,23,12,50,20.30
2011,07,23,12,51,20.20
2011,07,23,12,52,20.00
2011,07,23,12,53,19.90
2011,07,23,12,54,19.70
2011,07,23,12,55,19.70
2011,07,23,12,56,19.80
2011,07,23,12,57,19.90
2011,07,23,12,58,20.00
2011,07,23,12,59,20.10
2011,07,23,13,00,20.00
2011,07,23,13,01,19.90
2011,07,23,13,02,19.90
2011,07,23,13,03,19.80
2011,07,23,13,04,19.80
2011,07,23,13,05,19.80
2011,07,23,13,06,19.80
2011,07,23,13,07,19.80
2011,07,23,13,08,19.80
2011,07,23,13,09,19.90
2011,07,23,13,10,19.90
2011,07,23,13,11,20.00
2011,07,23,13,12,20.20
2011,07,23,13,13,20.20
2011,07,23,13,14,20.20
2011,07,23,13,15,20.20
2011,07,23,13,16,20.10
2011,07,23,13,17,19.90
2011,07,23,13,18,19.90
2011,07,23,13,19,19.90
2011,07,23,13,20,19.80
2011,07,23,13,21,19.90
2011,07,23,13,22,20.10
2011,07,23,13,23,20.10
2011,07,23,13,24,20.20
2011,07,23,13,25,20.20
2011,07,23,13,26,20.20
2011,07,23,13,27,20.10
2011,07,23,13,28,20.10
2011,07,23,13,29,20.10
2011,07,23,13,30,20.10
2011,07,23,13,31,20.10
2011,07,23,13,32,20.00
2011,07,23,13,33,19.90
2011,07,23,13,34,19.90
2011,07,23,13,35,20.00
2011,07,23,13,36,20.00
2011,07,23,13,37,20.00
2011,07,23,13,38,19.90
2011,07,23,13,39,19.80
2011,07,23,13,40,19.70
2011,07,23,13,41,19.80
2011,07,23,13,42,20.00
2011,07,23,13,43,20.10
2011,07,23,13,44,20.20
2011,07,23,13,45,20.20
2011,07,23,13,46,20.30
2011,07,23,13,47,20.50
2011,07,23,13,48,20.60
2011,07,23,13,49,20.60
2011,07,23,13,50,20.60
2011,07,23,13,51,20.70
2011,07,23,13,52,20.70
2011,07,23,13,53,20.70
2011,07,23,13,54,20.60
2011,07,23,13,55,20.60
2011,07,23,13,56,20.60
2011,07,23,13,57,20.60
2011,07,23,13,58,20.60
2011,07,23,13,59,20.60
2011,07,23,14,00,20.50
2011,07,23,14,01,20.50
2011,07,23,14,02,20.40
2011,07,23,14,03,20.30
2011,07,23,14,04,20.30
2011,07,23,14,05,20.30
2011,07,23,14,06,20.30
2011,07,23,14,07,20.30
2011,07,23,14,08,20.30
2011,07,23,14,09,20.20
2011,07,23,14,10,20.20
2011,07,23,14,11,20.30
2011,07,23,14,12,20.40
2011,07,23,14,13,20.50
2011,07,23,14,14,20.70
2011,07,23,14,15,20.70
2011,07,23,14,16,20.70
2011,07,23,14,17,20.70
2011,07,23,14,18,20.70
2011,07,23,14,19,20.70
2011,07,23,14,20,20.70
2011,07,23,14,21,20.80
2011,07,23,14,22,20.90
2011,07,23,14,23,21.00
2011,07,23,14,24,21.00
2011,07,23,14,25,20.90
2011,07,23,14,26,20.80
2011,07,23,14,27,20.80
2011,07,23,14,28,20.90
2011,07,23,14,29,20.90
2011,07,23,14,30,21.00
2011,07,23,14,31,21.10
2011,07,23,14,32,21.10
2011,07,23,14,33,21.20
2011,07,23,14,34,21.30
2011,07,23,14,35,21.30
2011,07,23,14,36,21.40
2011,07,23,14,37,21.40
2011,07,23,14,38,21.40
2011,07,23,14,39,21.40
2011,07,23,14,40,21.40
2011,07,23,14,41,21.40
2011,07,23,14,42,21.30
2011,07,23,14,43,21.30
2011,07,23,14,44,21.30
2011,07,23,14,45,21.20
2011,07,23,14,46,21.30
2011,07,23,14,47,21.20
2011,07,23,14,48,21.10
2011,07,23,14,49,21.00
2011,07,23,14,50,21.00
2011,07,23,14,51,21.00
2011,07,23,14,52,21.10
2011,07,23,14,53,21.10
2011,07,23,14,54,21.10
2011,07,23,14,55,21.00
2011,07,23,14,56,21.00
2011,07,23,14,57,21.00
2011,07,23,14,58,21.10
2011,07,23,14,59,21.10
2011,07,23,15,00,21.20
2011,07,23,15,01,21.30
2011,07,23,15,02,21.30
2011,07,23,15,03,21.20
2011,07,23,15,04,21.30
2011,07,23,15,05,21.30
2011,07,23,15,06,21.20
2011,07,23,15,07,21.20
2011,07,23,15,08,21.20
2011,07,23,15,09,21.10
2011,07,23,15,10,21.00
2011,07,23,15,11,20.90
2011,07,23,15,12,20.90
2011,07,23,15,13,20.80
2011,07,23,15,14,20.80
2011,07,23,15,15,20.90
2011,07,23,15,16,21.10
2011,07,23,15,17,21.10
2011,07,23,15,18,21.20
2011,07,23,15,19,21.20
2011,07,23,15,20,21.30
2011,07,23,15,21,21.30
2011,07,23,15,22,21.30
2011,07,23,15,23,21.30
2011,07,23,15,24,21.30
2011,07,23,15,25,21.20
2011,07,23,15,26,21.20
2011,07,23,15,27,21.30
2011,07,23,15,28,21.40
2011,07,23,15,29,21.50
2011,07,23,15,30,21.60
2011,07,23,15,31,21.60
2011,07,23,15,32,21.60
2011,07,23,15,33,21.50
2011,07,23,15,34,21.40
2011,07,23,15,35,21.40
2011,07,23,15,36,21.60
2011,07,23,15,37,21.70
2011,07,23,15,38,21.80
2011,07,23,15,39,21.80
2011,07,23,15,40,21.80
2011,07,23,15,41,21.90
2011,07,23,15,42,22.00
2011,07,23,15,43,22.00
2011,07,23,15,44,21.90
2011,07,23,15,45,21.80
2011,07,23,15,46,21.80
2011,07,23,15,47,21.80
2011,07,23,15,48,21.80
2011,07,23,15,49,21.90
2011,07,23,15,50,21.80
2011,07,23,15,51,21.80
2011,07,23,15,52,21.60
2011,07,23,15,53,21.60
2011,07,23,15,54,21.60
2011,07,23,15,55,21.60
2011,07,23,15,56,21.70
2011,07,23,15,57,21.80
2011,07,23,15,58,21.80
2011,07,23,15,59,21.90
2011,07,23,16,00,21.90
2011,07,23,16,01,22.00
2011,07,23,16,02,22.10
2011,07,23,16,03,22.20
2011,07,23,16,04,22.20
2011,07,23,16,05,22.20
2011,07,23,16,06,22.20
2011,07,23,16,07,22.10
2011,07,23,16,08,22.10
2011,07,23,16,09,22.10
2011,07,23,16,10,22.00
2011,07,23,16,11,22.00
2011,07,23,16,12,22.10
2011,07,23,16,13,22.10
2011,07,23,16,14,22.10
2011,07,23,16,15,22.20
2011,07,23,16,16,22.10
2011,07,23,16,17,22.10
2011,07,23,16,18,22.00
2011,07,23,16,19,22.00
2011,07,23,16,20,21.90
2011,07,23,16,21,21.80
2011,07,23,16,22,21.80
2011,07,23,16,23,21.80
2011,07,23,16,24,21.90
2011,07,23,16,25,22.00
2011,07,23,16,26,22.20
2011,07,23,16,27,22.30
2011,07,23,16,28,22.30
2011,07,23,16,29,22.40
2011,07,23,16,30,22.40
2011,07,23,16,31,22.30
2011,07,23,16,32,22.20
2011,07,23,16,33,22.10
2011,07,23,16,34,22.10
2011,07,23,16,35,22.10
2011,07,23,16,36,22.10
2011,07,23,16,37,22.10
2011,07,23,16,38,22.00
2011,07,23,16,39,21.90
2011,07,23,16,40,21.80
2011,07,23,16,41,21.80
2011,07,23,16,42,21.80
2011,07,23,16,43,21.80
2011,07,23,16,44,21.80
2011,07,23,16,45,21.90
2011,07,23,16,46,22.00
2011,07,23,16,47,22.00
2011,07,23,16,48,22.00
2011,07,23,16,49,22.00
2011,07,23,16,50,21.90
2011,07,23,16,51,21.90
2011,07,23,16,52,21.80
2011,07,23,16,53,21.80
2011,07,23,16,54,21.80
2011,07,23,16,55,21.70
2011,07,23,16,56,21.70
2011,07,23,16,57,21.60
2011,07,23,16,58,21.60
2011,07,23,16,59,21.60
2011,07,23,17,00,21.60
2011,07,23,17,01,21.70
2011,07,23,17,02,21.70
2011,07,23,17,03,21.80
2011,07,23,17,04,21.80
2011,07,23,17,05,21.80
2011,07,23,17,06,21.90
2011,07,23,17,07,21.80
2011,07,23,17,08,21.80
2011,07,23,17,09,21.80
2011,07,23,17,10,21.70
2011,07,23,17,11,21.70
2011,07,23,17,12,21.70
2011,07,23,17,13,21.70
2011,07,23,17,14,21.60
2011,07,23,17,15,21.60
2011,07,23,17,16,21.70
2011,07,23,17,17,21.80
2011,07,23,17,18,21.80
2011,07,23,17,19,21.70
2011,07,23,17,20,21.70
2011,07,23,17,21,21.70
2011,07,23,17,22,21.60
2011,07,23,17,23,21.60
2011,07,23,17,24,21.60
2011,07,23,17,25,21.70
2011,07,23,17,26,21.80